[[{"header":{"parameterUnit":"m.s-1","parameterCategory":1,"la1":30.2991,"la2":30.254,"lo1":-89.0895,"lo2":-89.0444,"dy":0.0017,"dx":0.0017,"nx":28,"ny":28,"refTime":"2026-03-03T09:00:00:Z","depth":0,"parameterNumber":2,"parameterNumberName":"U-component_of_WINDS"},"data":[0,0,0,0,0,0,0,0,0,0,0,0,0,0,0,0,0,0,0,0,0,0,0,0,0,0,0,0,0,0,0,0,0,0,0,0,0,0,0,0,0,0,0,0,0,0,0,0,0,0,0,0,0,0,0,0,0,0,-5.2435,-5.2437,0,-5.2631,-5.2633,-5.2636,-5.2633,-5.263,-5.2627,-5.2625,-5.2828,-5.2836,-5.2843,0,0,0,0,0,0,0,0,0,0,0,0,0,-5.206,-5.2067,-5.2434,-5.2437,-5.2439,-5.2631,-5.2634,-5.2636,-5.2633,-5.263,-5.2627,-5.2624,-5.2825,-5.2835,-5.2844,0,0,0,0,0,0,0,0,0,0,0,0,0,-5.2236,-5.2069,-5.2434,-5.2461,-5.2465,-5.263,-5.2634,-5.2637,-5.2634,-5.263,-5.2626,-5.2622,-5.2822,-5.2834,-5.2845,-5.2997,0,0,-5.2881,-5.2887,0,0,0,0,0,0,0,0,-5.2226,-5.225,-5.2454,-5.2459,-5.2464,-5.2603,-5.2576,-5.2758,-5.2635,-5.257,-5.2625,-5.262,-5.2757,-5.2773,-5.2819,-5.3007,-5.3016,-5.2882,-5.289,-5.2895,-5.2898,0,0,0,0,0,0,0,-5.2214,-5.2241,-5.2512,-5.2457,-5.2463,-5.2464,-5.2485,-5.261,-5.2683,-5.2575,-5.2575,-5.2599,-5.2758,-5.2808,-5.2824,-5.3019,-5.2882,-5.2893,-5.29,-5.2905,-5.3344,-5.3349,0,0,0,0,0,0,-5.2196,-5.2231,-5.2506,-5.2518,-5.2333,-5.2474,-5.2497,-5.2563,-5.2682,-5.2696,-5.2602,-5.2598,-5.2789,-5.281,-5.2831,-5.3018,-5.2895,-5.2906,-5.2912,-5.334,-5.3345,-5.335,0,0,0,0,0,0,-5.2188,-5.222,-5.2498,-5.2375,-5.241,-5.2485,-5.2558,-5.2569,-5.2618,-5.2702,-5.2715,-5.2638,-5.2787,-5.2814,-5.2957,-5.3025,-5.2911,-5.2922,-5.3334,-5.3341,-5.3348,-5.3392,0,0,0,0,0,0,-5.2177,-5.2217,-5.2274,-5.2376,-5.2417,-5.2619,-5.2563,-5.2575,-5.2638,-5.2634,-5.274,-5.2753,-5.2786,-5.2939,-5.2968,-5.3039,-5.2931,-5.3328,-5.3337,-5.3346,-5.3384,-5.3399,-5.3412,0,0,0,0,0,-5.2163,-5.2279,-5.2277,-5.2311,-5.249,-5.2623,-5.2646,-5.2681,-5.2643,-5.2702,-5.2757,-5.275,-5.3013,-5.2954,-5.2987,-5.3062,-5.3324,-5.3335,-5.3345,-5.3378,-5.3396,-5.3412,0,0,0,0,0,0,-5.2183,-5.2292,-5.2292,-5.2443,-5.2524,-5.2622,-5.2697,-5.2699,-5.2792,-5.2785,-5.2825,-5.2849,-5.2992,-5.3041,-5.2973,-5.3217,-5.3164,-5.3182,-5.3178,-5.3196,-5.321,-5.3194,-5.2941,0,0,0,0,0,-5.2205,-5.2303,-5.2394,-5.2519,-5.2559,-5.2622,-5.2681,-5.2701,-5.2786,-5.282,-5.2885,-5.2969,-5.3071,-5.3137,-5.3235,-5.3393,-5.3416,-5.3461,-5.3475,-5.3486,-5.35,-5.3589,-5.361,-5.3384,-5.3384,-5.3384,0,0,-5.2251,-5.2323,-5.2382,-5.2525,-5.2589,-5.2691,-5.265,-5.2759,-5.2835,-5.2837,-5.2975,-5.3026,-5.3123,-5.3274,-5.3344,-5.332,-5.3568,-5.3499,-5.3507,-5.3515,-5.3602,-5.3623,-5.3642,-5.3391,-5.339,-5.3389,0,0,-5.2386,-5.2451,-5.2562,-5.2629,-5.2728,-5.2769,-5.2796,-5.2895,-5.2929,-5.3069,-5.3073,-5.3165,-5.3339,-5.3408,-5.3466,-5.3633,-5.363,-5.3664,-5.3735,-5.3821,-5.3839,-5.3855,-5.3914,-5.3935,-5.3678,-5.3678,-5.3678,0,-5.243,-5.2583,-5.2619,-5.2729,-5.2793,-5.2801,-5.2915,-5.2978,-5.3104,-5.3148,-5.312,-5.3341,-5.3406,-5.3574,-5.3615,-5.3662,-5.3695,-5.365,-5.3833,-5.385,-5.3865,-5.3922,-5.3944,-5.3682,-5.3681,-5.3681,-5.3681,0,-5.2633,-5.2739,-5.2818,-5.294,-5.3012,-5.3124,-5.3179,-5.3249,-5.3265,-5.331,-5.3453,-5.3533,-5.3648,-5.369,-5.3706,-5.3862,-5.3844,-5.3824,-5.3772,-5.3889,-5.3944,-5.3966,-5.3686,-5.3685,-5.3684,-5.3683,0,0,-5.2781,-5.2925,-5.2953,-5.301,-5.3122,-5.3205,-5.3319,-5.3432,-5.3491,-5.3579,-5.3676,-5.3825,-5.3809,-5.3874,-5.3899,-5.3975,-5.4103,-5.3947,-5.395,-5.3972,-5.428,-5.4293,-5.4318,-5.4103,-5.4108,-5.4111,-5.4272,0,-5.2928,-5.3128,-5.3166,-5.3341,-5.344,-5.3452,-5.3551,-5.3632,-5.3678,-5.3771,-5.3823,-5.3927,-5.3898,-5.3938,-5.4014,-5.4071,-5.4165,-5.406,-5.4194,-5.4198,-5.4167,-5.4346,-5.4359,-5.4507,-5.4294,-5.4297,-5.43,0,-5.3124,-5.3217,-5.3402,-5.3503,-5.3546,-5.3635,-5.3743,-5.3831,-5.3924,-5.3952,-5.4028,-5.4045,-5.4165,-5.411,-5.4277,-5.4205,-5.4263,-5.43,-5.4307,-5.4319,-5.4254,-5.4362,-5.4555,-5.4576,-5.4334,-5.4331,-5.4329,0,-5.3213,-5.3386,-5.3519,-5.3567,-5.3688,-5.375,-5.3804,-5.3893,-5.3959,-5.4055,-5.4099,-5.4207,-5.4266,-5.4351,-5.4398,-5.4353,-5.4562,-5.451,-5.459,-5.4588,-5.463,-5.4627,-5.4834,-5.4671,-5.4671,-5.467,-5.467,0,-5.3371,-5.3483,-5.3561,-5.3642,-5.3769,-5.3814,-5.394,-5.3993,-5.4073,-5.4166,-5.4184,-5.4272,-5.4329,-5.4426,-5.4464,-5.4597,-5.4624,-5.4651,-5.4659,-5.4648,-5.4645,-5.4685,-5.4675,-5.4676,-5.4675,-5.4674,-5.4673,0,-5.349,-5.3546,-5.3692,-5.3796,-5.3826,-5.3915,-5.4005,-5.4085,-5.4134,-5.4252,-5.4283,-5.4359,-5.4473,-5.453,-5.4672,-5.4698,-5.4849,-5.4851,-5.4817,-5.482,-5.4896,-5.4887,-5.5134,-5.5169,-5.4984,-5.4986,-5.4987,0,-5.3586,-5.3672,-5.3787,-5.3851,-5.3906,-5.4009,-5.4077,-5.4127,-5.4197,-5.4312,-5.4379,-5.4495,-5.459,-5.4774,-5.4842,-5.4953,-5.4957,-5.5036,-5.4973,-5.496,-5.4957,-5.4951,-5.496,-5.5046,-5.5048,-5.505,-5.5051,0,-5.375,-5.3774,-5.3871,-5.398,-5.4061,-5.4149,-5.4236,-5.4288,-5.4351,-5.4431,-5.4548,-5.4622,-5.4769,-5.4884,-5.5,-5.5057,-5.5065,-5.5071,-5.5095,-5.5083,-5.5059,-5.5072,-5.4846,-5.5064,-5.5063,-5.5062,-5.5061,-5.506,-5.3859,-5.3938,-5.4031,-5.414,-5.4211,-5.4292,-5.4373,-5.4433,-5.4532,-5.4655,-5.4679,-5.4804,-5.4899,-5.5055,-5.5117,-5.5216,-5.5199,-5.5234,-5.5242,-5.5249,-5.5253,-5.5045,-5.5238,-5.5238,-5.5237,-5.5237,-5.5237,0,-5.4023,-5.4085,-5.4185,-5.4306,-5.4392,-5.4394,-5.4491,-5.4563,-5.4673,-5.476,-5.4854,-5.4991,-5.5104,-5.5183,-5.5298,-5.5363,-5.537,-5.5392,-5.5386,-5.54,-5.5262,-5.523,-5.5384,-5.5384,-5.5384,-5.5384,-5.5384,-5.5384,-5.4118,-5.4251,-5.4288,-5.4457,-5.4519,-5.4641,-5.4696,-5.4772,-5.4842,-5.4994,-5.5088,-5.5139,-5.5224,-5.5347,-5.5451,-5.5472,-5.5513,-5.5535,-5.5555,-5.5425,-5.5409,-5.5394,-5.5363,-5.5544,-5.5544,-5.5684,-5.5685,-5.5686]},{"header":{"parameterUnit":"m.s-1","parameterCategory":1,"la1":30.2991,"la2":30.254,"lo1":-89.0895,"lo2":-89.0444,"dy":0.0017,"dx":0.0017,"nx":28,"ny":28,"refTime":"2026-03-03T09:00:00:Z","depth":0,"parameterNumber":3,"parameterNumberName":"V-component_of_WINDS"},"data":[0,0,0,0,0,0,0,0,0,0,0,0,0,0,0,0,0,0,0,0,0,0,0,0,0,0,0,0,0,0,0,0,0,0,0,0,0,0,0,0,0,0,0,0,0,0,0,0,0,0,0,0,0,0,0,0,0,0,1.1394,1.1394,0,1.1445,1.1446,1.1446,1.1498,1.1499,1.15,1.15,1.155,1.1551,1.1552,0,0,0,0,0,0,0,0,0,0,0,0,0,1.134,1.1341,1.1394,1.1395,1.1395,1.1445,1.1446,1.1446,1.1498,1.1499,1.15,1.15,1.155,1.1551,1.1552,0,0,0,0,0,0,0,0,0,0,0,0,0,1.1375,1.1341,1.1394,1.1427,1.143,1.1445,1.1446,1.1447,1.1498,1.1499,1.15,1.1501,1.155,1.1551,1.1552,1.1537,0,0,1.1555,1.1555,0,0,0,0,0,0,0,0,1.1373,1.1377,1.1421,1.1425,1.1429,1.1466,1.1445,1.1477,1.1498,1.1472,1.15,1.1501,1.1521,1.1525,1.1532,1.1539,1.1541,1.1555,1.1556,1.1556,1.1556,0,0,0,0,0,0,0,1.137,1.1375,1.1414,1.1422,1.1426,1.1439,1.1445,1.1451,1.149,1.1474,1.1478,1.1484,1.1523,1.1531,1.1533,1.1542,1.1555,1.1556,1.1556,1.1557,1.1542,1.1541,0,0,0,0,0,0,1.1363,1.1372,1.1412,1.1416,1.1403,1.1439,1.1446,1.1453,1.149,1.1497,1.1483,1.1486,1.1529,1.1532,1.1535,1.1522,1.1556,1.1557,1.1557,1.1543,1.1542,1.1541,0,0,0,0,0,0,1.1362,1.1366,1.141,1.1395,1.1402,1.1439,1.1447,1.1454,1.1461,1.1497,1.1504,1.1483,1.153,1.1534,1.1537,1.1524,1.1557,1.1558,1.1544,1.1542,1.1541,1.1493,0,0,0,0,0,0,1.136,1.1365,1.136,1.1395,1.1402,1.1411,1.1446,1.1454,1.1463,1.1468,1.1499,1.1505,1.1531,1.1535,1.1538,1.1526,1.1559,1.1545,1.1543,1.1542,1.1496,1.149,1.1485,0,0,0,0,0,1.1358,1.1343,1.1359,1.1364,1.1397,1.141,1.1414,1.1445,1.1462,1.1457,1.148,1.1504,1.1525,1.1535,1.1538,1.1527,1.1546,1.1544,1.1542,1.1499,1.1492,1.1486,0,0,0,0,0,0,1.1305,1.1348,1.1367,1.1363,1.1383,1.1419,1.1413,1.1436,1.145,1.1454,1.1491,1.1497,1.1496,1.1512,1.1522,1.1516,1.1539,1.1538,1.1505,1.1499,1.1494,1.149,1.156,0,0,0,0,0,1.1293,1.1301,1.1338,1.1332,1.1341,1.1375,1.1382,1.1404,1.1426,1.1434,1.1457,1.1476,1.1488,1.1494,1.1506,1.1499,1.1507,1.1493,1.1488,1.1483,1.1481,1.148,1.1475,1.1533,1.1533,1.1533,0,0,1.1268,1.1293,1.1295,1.1322,1.1339,1.1347,1.1382,1.1387,1.1393,1.1434,1.1439,1.1457,1.1481,1.1479,1.1479,1.1492,1.1467,1.148,1.1476,1.1477,1.1477,1.1472,1.1467,1.1532,1.1532,1.1532,0,0,1.1227,1.1246,1.1244,1.1261,1.1288,1.1312,1.1311,1.1344,1.1358,1.1363,1.1395,1.1402,1.1421,1.1437,1.1448,1.1415,1.1438,1.1418,1.139,1.1388,1.1384,1.138,1.1369,1.1365,1.1416,1.1416,1.1416,0,1.1192,1.1205,1.1239,1.1244,1.1255,1.1294,1.1292,1.1307,1.1336,1.1343,1.1357,1.1382,1.1401,1.1404,1.1397,1.1404,1.1405,1.1414,1.1382,1.1378,1.1375,1.1365,1.1361,1.1413,1.1414,1.1414,1.1414,0,1.1162,1.117,1.1165,1.1194,1.1204,1.1205,1.124,1.1246,1.1268,1.129,1.1296,1.132,1.1339,1.1341,1.1362,1.1348,1.1355,1.1375,1.1399,1.1366,1.1358,1.1354,1.141,1.1411,1.1411,1.1412,0,0,1.1087,1.1137,1.1134,1.1148,1.1182,1.1189,1.1192,1.1212,1.1217,1.1236,1.1241,1.1256,1.1275,1.1288,1.131,1.1309,1.1283,1.1329,1.1331,1.132,1.1271,1.1256,1.1251,1.1299,1.1298,1.1298,1.1269,0,1.1052,1.1061,1.1093,1.1093,1.1102,1.114,1.1143,1.1164,1.1185,1.1196,1.1219,1.123,1.1254,1.1262,1.1262,1.1286,1.1274,1.1289,1.1303,1.1303,1.1296,1.1247,1.1231,1.1202,1.1266,1.1265,1.1265,0,1.1012,1.103,1.1031,1.1066,1.1071,1.1073,1.1095,1.1104,1.1129,1.1145,1.116,1.1186,1.1192,1.1215,1.1225,1.1234,1.1242,1.1255,1.1255,1.1257,1.1282,1.1248,1.1194,1.119,1.126,1.126,1.1261,0,1.0959,1.0983,1.0988,1.0999,1.1039,1.1041,1.1057,1.1084,1.1094,1.1113,1.112,1.1138,1.1148,1.1162,1.1193,1.1207,1.1199,1.1225,1.1213,1.1212,1.1209,1.1209,1.1155,1.1213,1.1213,1.1214,1.1214,0,1.0916,1.0915,1.0965,1.0967,1.0968,1.1005,1.1004,1.1025,1.1048,1.1056,1.109,1.1096,1.1136,1.1147,1.1171,1.1176,1.118,1.1193,1.1199,1.119,1.1188,1.1195,1.1198,1.1213,1.1213,1.1213,1.1213,0,1.0857,1.089,1.0897,1.0936,1.0946,1.0944,1.0978,1.0982,1.1006,1.1015,1.1019,1.1056,1.1071,1.1103,1.1126,1.1143,1.1142,1.1153,1.1133,1.1138,1.1124,1.1125,1.1074,1.1069,1.1129,1.1129,1.1128,0,1.0828,1.0828,1.0868,1.0876,1.0892,1.0904,1.0915,1.0952,1.0962,1.0992,1.0993,1.1011,1.1027,1.1048,1.1077,1.1096,1.1108,1.1089,1.1111,1.1102,1.1109,1.1108,1.1109,1.1084,1.1083,1.1082,1.1082,0,1.0773,1.079,1.0805,1.0827,1.0839,1.0858,1.0878,1.0882,1.0924,1.0934,1.095,1.0963,1.0987,1.1005,1.1028,1.1045,1.107,1.1075,1.1073,1.1064,1.1053,1.1059,1.1121,1.1076,1.1076,1.1077,1.1077,1.1077,1.0729,1.0732,1.0761,1.0777,1.0796,1.0815,1.0821,1.0847,1.0861,1.0885,1.0906,1.092,1.0947,1.098,1.0996,1.1008,1.1021,1.1018,1.1018,1.1016,1.1013,1.1051,1.1013,1.1013,1.1013,1.1013,1.1013,0,1.0677,1.0698,1.0712,1.074,1.0753,1.0777,1.0801,1.0811,1.0823,1.0846,1.0862,1.0882,1.0899,1.093,1.095,1.0954,1.0966,1.0958,1.0958,1.0962,1.1,1.1,1.0948,1.0948,1.0948,1.0948,1.0948,1.0948,1.0651,1.0658,1.0678,1.0695,1.0717,1.0732,1.0744,1.0761,1.078,1.0801,1.0816,1.0836,1.0863,1.0886,1.0903,1.0912,1.0918,1.0906,1.0919,1.0953,1.0959,1.0965,1.0965,1.0907,1.0907,1.088,1.088,1.088]}]]